Location: Lombard
(41.8800°N, 88.0080°W)
Time: 23:27:57
(UTC-05:00)

Tiros 1 - Pass Details

Date: 27 January 2023
Orbit: 628 x 662 km, 48.4° (Epoch: 20 March)

Event Time Altitude Azimuth Distance (km) Brightness Sun altitude
Rises 06:38:16 0° 293° (WNW) 2,945 - -6.2°
Exits shadow 06:40:00 - 297° (WNW) 2,293 9.3 -5.9°
Reaches altitude 10° 06:40:42 10° 300° (WNW) 2,041 9.1 -5.8°
Maximum altitude 06:45:11 42° 12° (NNE) 922 7.9 -5.0°
Drops below altitude 10° 06:49:42 10° 84° (E) 2,060 10.9 -4.2°
Sets 06:52:10 0° 91° (E) 2,975 12.2 -3.8°
